CDT,Max TemperatureF,Mean TemperatureF,Min TemperatureF,Max Dew PointF,MeanDew PointF,Min DewpointF,Max Humidity, Mean Humidity, Min Humidity, Max Sea Level PressureIn, Mean Sea Level PressureIn, Min Sea Level PressureIn, Max VisibilityMiles, Mean VisibilityMiles, Min VisibilityMiles, Max Wind SpeedMPH, Mean Wind SpeedMPH, Max Gust SpeedMPH,PrecipitationIn, CloudCover, Events, WindDirDegrees
2013-10-1,86,75,64,70,63,61,93,75,44,30.12,30.07,30.02,10,10,8,8,2,,0.00,2,Rain,86
2013-10-2,82,71,60,66,62,58,93,76,44,30.13,30.08,30.04,10,8,5,6,1,,0.00,0,,129
2013-10-3,87,74,60,67,61,56,100,74,36,30.12,30.07,30.02,10,8,2,9,1,,0.00,2,,124
2013-10-4,90,76,62,71,66,60,93,77,45,30.13,30.08,30.03,10,9,4,8,1,,0.00,1,,127
2013-10-5,89,76,64,71,66,62,96,75,43,30.10,30.04,29.98,10,9,4,7,1,,0.00,0,,127
2013-10-6,86,77,68,71,69,64,97,81,55,29.98,29.91,29.84,10,10,7,12,4,,0.00,3,Rain,163
2013-10-7,75,69,62,70,66,55,100,85,66,29.94,29.85,29.80,10,8,0,9,2,,0.00,7,Fog-Rain-Thunderstorm,326
2013-10-8,82,70,57,66,60,54,94,75,54,30.08,29.98,29.91,10,10,10,8,3,,0.00,5,,28
2013-10-9,77,68,60,65,58,55,93,80,58,30.17,30.10,30.06,10,10,7,9,5,20,0.00,5,Rain,63
2013-10-10,81,68,55,66,58,55,100,83,44,30.13,30.07,30.01,10,6,0,6,0,,0.01,2,Fog-Rain,320
2013-10-11,84,70,55,66,59,54,100,81,41,30.07,30.01,29.97,10,7,2,8,1,,0.00,0,Rain,300
2013-10-12,84,69,54,62,57,53,97,77,38,30.08,30.04,30.00,10,7,2,7,1,,0.01,2,Rain,307
2013-10-13,84,68,53,66,59,52,96,75,41,30.15,30.10,30.06,10,8,2,7,1,,0.01,1,,320
2013-10-14,75,68,60,64,61,57,97,82,64,30.17,30.12,30.09,10,8,2,9,1,,0.00,3,,45
2013-10-15,77,68,59,64,61,57,100,81,58,30.10,30.06,30.00,10,10,7,6,1,,0.01,4,,15
2013-10-16,81,68,55,65,58,54,100,85,50,30.05,30.00,29.94,10,6,1,6,0,,0.01,1,Rain,90
2013-10-17,84,72,60,71,67,59,97,84,53,29.98,29.93,29.87,10,8,2,12,2,17,0.00,6,Rain,248
2013-10-18,75,69,63,67,63,60,100,86,61,30.01,29.96,29.92,10,9,3,5,2,,0.00,6,Rain,338
2013-10-19,72,67,61,62,60,57,97,84,59,29.99,29.96,29.93,10,10,7,5,1,,0.01,6,Rain,333
2013-10-20,75,64,54,58,54,52,94,79,44,30.05,30.01,29.98,10,8,4,6,1,,0.00,1,Rain,180
2013-10-21,73,63,53,64,58,51,97,84,65,30.08,30.03,29.98,10,9,6,4,0,,0.01,1,,340
2013-10-22,75,68,61,65,62,53,97,85,58,29.99,29.94,29.86,10,6,2,6,1,,0.02,5,Rain,317
2013-10-23,73,60,45,53,45,35,90,64,27,30.11,29.98,29.89,10,10,10,9,3,17,0.00,0,Rain,294
2013-10-24,73,56,39,55,44,37,93,71,35,30.23,30.16,30.11,10,9,0,6,1,,0.00,0,Rain,26
2013-10-25,64,52,37,46,36,26,93,64,25,30.39,30.31,30.19,10,10,10,8,2,,0.01,0,,340
2013-10-26,68,50,33,48,37,31,93,71,29,30.32,30.25,30.17,10,10,8,5,1,,0.00,0,Rain,111
2013-10-27,73,56,39,57,46,37,97,79,36,30.18,30.14,30.10,10,8,4,5,0,,0.01,1,Rain,130
2013-10-28,79,64,50,58,53,50,100,80,36,30.24,30.18,30.12,10,7,2,6,1,,0.00,3,Rain,146
2013-10-29,82,66,51,63,55,48,96,76,39,30.31,30.24,30.20,10,8,1,5,1,,0.00,1,,164
2013-10-30,82,68,53,61,55,52,100,77,35,30.30,30.21,30.14,10,8,2,6,1,,0.01,0,,123
2013-10-31,80,68,57,68,62,54,93,75,56,30.13,30.00,29.89,10,10,1,10,4,17,0.00,3,Rain,169